Temp
9 9 9 9 9 9 9 9 10 9 10 10 10 10 9 9 9 9 9 9 8 8 7 7 7 6 5 5 6 6 6 6 6
9 9 9 9 9 9 9 10 10 10 10 10 10 10 10 9 9 9 9 9 9 8 7 7 6 6 5 4 5 5 6 6 5
9 9 9 9 9 10 10 10 10 10 10 10 10 10 10 9 9 9 9 8 8 8 8 7 6 6 5 5 5 5 5 5 5
9 9 9 10 9 10 10 10 10 10 10 10 10 10 10 10 10 9 9 8 8 7 7 7 6 6 5 5 5 5 5 5 5
9 9 10 10 10 10 10 10 10 10 10 10 10 10 10 10 9 9 9 8 8 8 7 6 6 6 5 4 5 4 4 4 4
9 10 10 10 10 10 10 10 10 10 10 10 10 10 10 10 9 9 9 8 8 7 7 6 5 5 5 5 4 4 4 4 4
9 10 10 10 10 10 10 10 10 10 10 10 10 10 10 9 9 8 8 7 7 7 6 6 5 5 4 4 4 4 4 4 3
9 10 10 10 10 10 10 10 10 10 10 10 10 10 9 9 8 7 7 6 6 6 6 5 5 4 4 4 4 4 4 4 4
9 9 9 10 10 9 10 10 10 10 10 10 9 9 9 8 7 6 6 6 6 6 5 5 4 4 4 3 3 3 3 3 3
9 9 9 9 9 9 9 9 9 9 9 9 8 8 8 7 6 6 6 5 5 5 5 5 4 4 3 3 2 2 3 3 3
9 9 9 9 9 9 9 9 9 9 8 8 8 7 7 6 6 6 5 5 5 5 5 5 4 4 3 3 3 3 3 3 3
8 9 9 9 8 8 8 8 8 8 7 7 7 7 6 6 6 5 5 5 4 4 4 4 4 3 3 2 2 3 3 3 3
8 8 8 8 8 8 8 7 7 7 7 6 6 6 6 5 5 5 5 4 4 4 4 4 3 3 3 3 3 3 3 3 3
8 8 8 8 8 7 7 7 7 6 6 6 5 5 5 5 5 5 4 4 4 4 4 3 3 3 3 2 2 2 2 2 2
7 7 7 7 7 7 7 6 6 6 6 5 5 5 5 5 5 4 4 4 4 4 3 3 3 3 2 2 2 2 2 2 2
7 7 7 7 7 6 6 6 6 5 5 4 4 4 4 4 4 4 4 4 4 3 3 3 3 3 3 2 2 2 2 2 2
6 6 7 7 6 6 6 5 5 4 4 4 4 4 4 4 4 4 3 3 3 3 3 3 3 3 3 3 2 2 2 2 2
6 6 6 6 6 5 5 5 4 4 4 3 3 3 3 3 3 3 3 3 3 3 3 3 3 3 3 3 3 3 2 2 2
6 6 6 6 5 5 4 4 4 3 3 3 3 3 3 3 3 3 3 3 3 3 3 3 3 3 3 3 2 2 2 2 2
5 5 5 5 5 4 4 4 4 3 3 2 2 2 2 3 2 2 2 3 3 3 2 3 3 3 2 2 2 2 2 2 2
Height
3194 3193 3192 3191 3190 3189 3188 3187 3185 3184 3182 3181 3179 3178 3176 3174 3172 3170 3168 3167 3166 3165 3164 3163 3161 3160 3160 3159 3159 3158 3158 3158 3158
3193 3192 3192 3190 3189 3188 3187 3186 3184 3182 3181 3178 3177 3175 3173 3171 3169 3167 3165 3163 3161 3160 3159 3158 3157 3156 3156 3156 3156 3155 3154 3154 3154
3192 3191 3191 3190 3189 3187 3185 3183 3182 3180 3178 3176 3174 3171 3169 3167 3165 3163 3160 3158 3156 3154 3153 3152 3151 3151 3152 3152 3151 3150 3149 3149 3150
3191 3190 3189 3188 3186 3184 3183 3181 3179 3177 3174 3172 3170 3168 3165 3163 3160 3158 3155 3153 3150 3148 3147 3147 3146 3145 3146 3147 3146 3146 3145 3145 3145
3191 3189 3188 3186 3185 3183 3180 3178 3176 3174 3171 3168 3166 3163 3160 3157 3154 3152 3150 3147 3145 3142 3140 3140 3139 3139 3139 3140 3141 3140 3140 3140 3141
3190 3188 3187 3185 3183 3181 3178 3175 3173 3170 3167 3164 3162 3159 3155 3152 3149 3147 3144 3141 3138 3135 3134 3133 3131 3132 3133 3133 3133 3134 3134 3135 3135
3188 3187 3185 3183 3181 3178 3175 3172 3169 3167 3164 3160 3157 3154 3150 3147 3143 3140 3138 3135 3132 3129 3126 3127 3125 3125 3125 3126 3127 3128 3129 3128 3127
3187 3185 3183 3180 3178 3175 3172 3169 3166 3163 3160 3156 3153 3150 3146 3142 3138 3135 3132 3130 3127 3124 3122 3121 3120 3119 3119 3120 3120 3121 3122 3123 3122
3185 3183 3180 3178 3175 3172 3169 3166 3163 3160 3157 3153 3150 3146 3142 3138 3134 3132 3129 3127 3124 3121 3119 3117 3116 3115 3115 3115 3115 3114 3115 3115 3117
3182 3181 3178 3176 3173 3169 3166 3162 3160 3156 3153 3150 3146 3142 3138 3135 3132 3129 3127 3124 3122 3119 3117 3115 3113 3112 3110 3110 3109 3109 3108 3109 3109
3180 3178 3175 3172 3170 3167 3164 3160 3157 3154 3150 3146 3142 3139 3136 3133 3130 3127 3125 3123 3120 3118 3115 3113 3111 3109 3108 3107 3105 3104 3103 3102 3103
3177 3175 3172 3170 3167 3164 3161 3156 3153 3149 3146 3143 3140 3137 3134 3131 3128 3126 3123 3121 3119 3116 3114 3112 3109 3107 3106 3103 3102 3100 3099 3099 3099
3174 3172 3169 3167 3164 3161 3158 3154 3150 3146 3143 3140 3138 3135 3132 3129 3127 3125 3122 3120 3118 3116 3114 3112 3109 3107 3104 3102 3101 3099 3098 3097 3095
3171 3169 3166 3163 3161 3158 3154 3151 3147 3144 3141 3138 3135 3133 3131 3128 3126 3124 3121 3119 3117 3115 3113 3111 3109 3107 3104 3101 3100 3098 3097 3095 3094
3167 3165 3163 3160 3157 3154 3150 3147 3144 3141 3139 3136 3133 3131 3128 3126 3125 3122 3120 3118 3116 3114 3112 3109 3108 3105 3104 3102 3099 3098 3096 3094 3093
3163 3161 3158 3156 3153 3150 3147 3144 3141 3138 3135 3134 3132 3129 3126 3124 3122 3120 3118 3116 3114 3112 3110 3108 3106 3104 3103 3102 3099 3097 3096 3093 3092
3159 3157 3154 3151 3149 3146 3143 3141 3138 3136 3134 3131 3129 3127 3125 3122 3120 3118 3116 3115 3112 3111 3108 3107 3106 3102 3100 3099 3098 3096 3095 3093 3091
3155 3152 3149 3147 3145 3142 3140 3137 3135 3133 3131 3129 3127 3125 3123 3120 3118 3116 3114 3113 3110 3109 3106 3105 3104 3102 3100 3097 3096 3095 3093 3091 3089
3150 3148 3145 3143 3141 3138 3136 3134 3131 3129 3127 3125 3123 3122 3121 3118 3116 3114 3112 3110 3109 3106 3104 3103 3102 3100 3098 3096 3094 3093 3091 3089 3088
3146 3143 3141 3138 3136 3134 3131 3129 3127 3125 3123 3121 3119 3117 3116 3116 3114 3112 3109 3107 3106 3104 3102 3101 3099 3098 3096 3094 3093 3091 3089 3087 3086
Wind_Speed
8 8 8 9 10 10 11 13 15 16 16 17 18 20 21 22 23 24 25 25 23 22 22 21 21 19 18 19 16 15 16 15 15
9 9 9 9 10 12 13 15 16 17 19 20 22 23 24 25 25 26 27 27 27 26 24 23 23 21 20 20 21 18 19 17 15
9 10 11 12 12 14 15 16 18 19 20 22 23 25 26 27 27 28 28 28 28 28 28 26 25 24 20 18 21 19 17 17 17
11 10 12 14 15 16 17 19 21 21 22 23 24 26 27 28 29 30 30 30 29 29 29 27 27 27 24 21 22 22 21 20 19
12 12 13 14 16 17 18 20 22 23 24 25 26 27 28 29 31 31 31 31 31 31 30 27 27 26 25 24 25 26 26 23 22
12 13 14 15 17 19 20 21 22 23 24 25 26 28 29 30 31 32 32 31 31 31 30 27 27 24 25 26 29 30 27 27 25
13 14 15 17 19 20 21 22 23 24 25 26 27 29 30 30 30 29 28 27 27 28 28 26 26 25 23 25 28 30 31 20 27
15 16 18 19 20 22 23 23 23 24 26 27 28 29 30 30 30 27 25 23 23 23 24 24 23 23 24 22 23 27 32 36 37
16 18 19 20 22 23 23 23 24 25 26 27 28 28 29 29 28 25 23 21 20 19 19 20 20 20 20 20 21 24 27 31 40
18 19 20 22 23 23 23 24 25 27 27 27 27 27 28 26 24 21 20 19 18 17 16 16 16 16 17 18 20 22 24 26 29
18 20 21 22 23 23 24 25 26 27 27 27 26 26 26 23 21 19 18 17 17 16 15 14 14 14 14 15 16 17 20 20 20
19 21 21 22 23 24 25 26 27 28 28 27 26 25 23 21 19 18 17 16 15 15 15 14 12 11 11 10 10 12 12 10 13
19 21 21 22 23 24 25 25 27 27 26 25 25 23 21 20 19 17 16 16 16 16 15 14 14 12 10 11 12 11 10 8 9
20 21 22 23 23 24 25 25 26 25 25 24 23 21 19 19 18 16 15 15 15 15 15 14 13 12 12 11 11 11 10 9 8
21 22 23 23 24 24 25 25 25 25 23 22 21 19 18 17 16 15 15 15 14 13 14 14 13 12 11 11 9 9 9 8 8
21 23 23 24 24 24 23 24 24 24 24 22 19 17 17 16 15 15 14 14 14 14 14 13 11 10 11 11 10 10 10 9 7
22 23 24 24 24 24 23 24 25 24 22 21 19 17 16 15 15 14 14 13 13 14 14 14 13 10 9 10 11 11 10 10 9
22 24 24 24 24 23 23 23 23 23 21 20 19 17 16 16 16 15 15 14 13 13 13 15 15 13 11 10 10 11 11 11 11
23 24 24 24 24 23 23 22 22 21 20 19 18 17 17 15 16 16 16 15 14 13 13 14 15 14 12 12 12 12 12 11 12
23 24 24 25 24 23 23 22 22 21 20 19 18 17 17 17 16 15 18 17 15 14 14 13 13 13 13 13 13 12 12 12 12
Wind_Direction
349 344 343 340 334 332 330 327 324 324 322 319 318 315 314 312 311 309 307 306 303 301 297 294 292 292 279 286 276 278 279 281 279
348 341 336 332 328 327 326 323 319 318 316 315 314 313 311 309 307 305 303 302 301 297 291 286 283 280 280 274 284 288 283 279 278
348 346 337 332 330 328 324 323 317 317 315 314 312 311 310 309 307 305 303 301 299 295 291 287 280 273 268 274 275 279 276 273 271
343 346 341 335 332 330 326 321 319 318 315 313 312 311 310 308 306 304 303 301 299 295 292 291 284 277 269 254 259 264 266 267 258
343 342 340 334 327 326 323 320 320 317 316 316 315 312 311 308 307 306 305 303 300 296 293 289 283 278 268 257 250 254 260 262 256
344 338 336 331 329 326 322 321 321 319 318 317 316 314 312 311 310 308 307 305 302 299 295 287 281 277 272 262 250 250 257 259 259
342 336 335 334 331 327 324 325 324 324 323 323 321 319 320 318 316 314 312 308 303 299 297 292 283 277 270 265 259 251 249 254 246
338 337 336 335 332 328 327 329 329 330 329 328 326 325 323 322 321 321 320 317 314 309 304 299 291 281 274 269 263 259 252 249 259
334 335 335 333 331 331 331 332 334 333 332 329 326 326 327 326 326 328 329 328 326 324 319 313 303 293 288 279 268 261 259 256 251
332 332 333 333 333 334 334 334 335 336 333 330 329 331 330 330 331 334 335 333 332 332 329 326 322 311 295 282 273 269 265 263 262
328 329 334 335 334 334 335 336 336 335 334 333 332 332 332 333 334 335 337 337 339 339 338 334 332 322 308 297 288 281 273 269 271
327 329 333 334 333 334 336 337 337 338 336 334 332 332 334 336 335 337 338 338 339 341 341 338 331 326 323 318 312 300 304 284 269
325 328 331 332 332 333 335 337 338 338 335 334 332 332 336 336 335 336 336 338 342 343 344 343 337 330 319 314 319 315 316 302 288
323 326 328 329 330 331 333 336 337 335 334 333 331 333 337 337 335 336 336 338 341 344 344 349 347 339 331 334 332 327 328 324 317
321 323 325 326 326 329 333 334 333 331 332 330 328 332 334 333 333 335 335 335 338 340 345 350 347 348 337 331 332 327 329 331 331
318 319 321 322 324 328 329 327 328 330 329 327 325 329 330 328 327 329 330 333 334 336 341 340 338 348 343 334 331 330 330 332 332
314 314 317 320 323 325 325 325 326 326 326 324 323 323 325 325 326 326 327 329 331 332 333 330 326 335 338 329 327 331 332 330 331
308 311 317 320 319 321 322 322 323 323 324 323 321 320 321 325 326 328 325 325 326 325 328 323 321 326 328 323 323 326 327 328 327
308 314 316 315 316 318 319 319 319 319 320 320 320 319 315 319 322 324 325 324 323 322 322 321 320 322 324 322 321 322 323 324 322
309 311 310 312 313 313 314 314 314 316 314 313 314 317 316 312 313 316 319 320 322 322 320 319 319 321 320 320 318 319 321 324 323